Glencoe, MN

4:36 PM CDT on May 25, 2017 (GMT -0500)
Glencoe Municipal

Weather History for KGYL - January, 2013

Change the Weather History Date:

Saturday, January 19, 2013

  Actual Average (KHCD) Record (KHCD)
Temperature  
Mean Temperature 19 °F -  
Max Temperature 37 °F 21 °F 48 °F (1981)
Min Temperature 1 °F 0 °F -34 °F (1970)
Degree Days  
Heating Degree Days 46    
Moisture  
Dew Point 17 °F    
Average Humidity 79    
Maximum Humidity 96    
Minimum Humidity 63    
Precipitation  
Precipitation 0.00 in - - ()
Sea Level Pressure  
Sea Level Pressure 29.88 in    
Wind  
Wind Speed 9 mph (WNW)    
Max Wind Speed 38 mph    
Max Gust Speed 51 mph    
Visibility 10 miles    
Events      
Averages and records for this station are not official NWS values.
T = Trace of Precipitation, MM = Missing Value Source: NWS Daily Summary

Daily Weather History Graph

Daily Weather History Graph

Search for Another Location

Airport or City:

Trip Planner

Search our weather history database for the weather conditions in past years. The results will help you decide how hot, cold, wet, or windy it might be!

Date:

Astronomy

Jan. 19, 2013 Rise Set
Actual Time 7:47 AM CST 5:07 PM CST
Civil Twilight 7:15 AM CST 5:39 PM CST
Nautical Twilight 6:39 AM CST 6:15 PM CST
Astronomical Twilight 6:04 AM CST 6:50 PM CST
Moon 11:36 AM CST (1/19) 1:18 AM CST (1/19)
Length of Visible Light 10h 24m
Length of Day
9h 19m
First Quarter, 57% of the Moon is Illuminated
Jan 19
First Quarter
Jan 26
Full
Feb 3
Last Quarter
Feb 10
New
Feb 17
First Quarter

Hourly Weather History & Observations

Time (CST) Temp. Windchill Dew Point Humidity Pressure Visibility Wind Dir Wind Speed Gust Speed Precip Events Conditions
12:16 AM 29.1 °F - 27.1 °F 92% 29.77 in 10.0 mi Calm Calm - N/A   Clear
12:35 AM 28.8 °F - 26.4 °F 91% 29.76 in 10.0 mi Calm Calm - N/A   Clear
12:56 AM 26.8 °F - 24.8 °F 92% 29.75 in 10.0 mi Calm Calm - N/A   Clear
1:16 AM 26.4 °F - 24.8 °F 94% 29.74 in 10.0 mi Calm Calm - N/A   Clear
1:36 AM 25.7 °F - 24.8 °F 96% 29.75 in 10.0 mi Calm Calm - N/A   Clear
1:56 AM 25.9 °F - 24.4 °F 94% 29.74 in 10.0 mi Calm Calm - N/A   Clear
2:16 AM 25.2 °F - 24.1 °F 96% 29.75 in 10.0 mi Calm Calm - N/A   Clear
2:36 AM 28.2 °F - 27.3 °F 96% 29.74 in 10.0 mi Calm Calm - N/A   Clear
2:56 AM 28.9 °F - 27.5 °F 94% 29.73 in 10.0 mi Calm Calm - N/A   Clear
3:16 AM 29.3 °F - 27.5 °F 93% 29.72 in 10.0 mi Calm Calm - N/A   Clear
3:36 AM 29.7 °F - 27.9 °F 93% 29.72 in 10.0 mi Calm Calm - N/A   Clear
3:56 AM 27.9 °F - 26.2 °F 94% 29.70 in 10.0 mi Calm Calm - N/A   Scattered Clouds
4:16 AM 28.2 °F - 26.6 °F 94% 29.69 in 10.0 mi Calm Calm - N/A   Scattered Clouds
4:36 AM 29.7 °F - 28.2 °F 94% 29.69 in 10.0 mi Calm Calm - N/A   Scattered Clouds
4:56 AM 30.7 °F - 28.4 °F 91% 29.68 in 10.0 mi Calm Calm - N/A   Clear
5:16 AM 30.7 °F - 28.4 °F 91% 29.70 in 10.0 mi Calm Calm - N/A   Clear
5:36 AM 30.6 °F - 28.4 °F 92% 29.69 in 10.0 mi Calm Calm - N/A   Clear
5:56 AM 31.3 °F - 28.8 °F 90% 29.70 in 10.0 mi Calm Calm - N/A   Clear
6:16 AM 30.0 °F - 27.7 °F 91% 29.68 in 10.0 mi Calm Calm - N/A   Clear
6:36 AM 30.9 °F - 28.2 °F 90% 29.68 in 10.0 mi Calm Calm - N/A   Clear
6:56 AM 31.3 °F - 28.0 °F 88% 29.68 in 10.0 mi Calm Calm - N/A   Clear
7:16 AM 32.0 °F - 28.2 °F 86% 29.68 in 10.0 mi Calm Calm - N/A   Mostly Cloudy
7:36 AM 31.1 °F - 27.5 °F 87% 29.70 in 10.0 mi Calm Calm - N/A   Scattered Clouds
7:55 AM 30.9 °F - 27.5 °F 87% 29.70 in 10.0 mi Calm Calm - N/A   Scattered Clouds
8:16 AM 31.8 °F - 27.7 °F 85% 29.71 in 10.0 mi Calm Calm - N/A   Mostly Cloudy
8:36 AM 32.2 °F 25.8 °F 28.0 °F 85% 29.72 in 10.0 mi West 6.9 mph - N/A   Mostly Cloudy
8:56 AM 32.2 °F 23.8 °F 28.2 °F 85% 29.72 in 10.0 mi West 10.4 mph - N/A   Scattered Clouds
9:16 AM 33.8 °F 24.8 °F 28.6 °F 81% 29.73 in 10.0 mi West 12.7 mph 19.6 mph N/A   Scattered Clouds
9:36 AM 34.0 °F 24.6 °F 28.8 °F 81% 29.74 in 10.0 mi West 13.8 mph - N/A   Scattered Clouds
9:56 AM 34.7 °F 24.7 °F 29.3 °F 81% 29.75 in 10.0 mi West 16.1 mph 23.0 mph N/A   Scattered Clouds
10:16 AM 35.1 °F 24.5 °F 29.3 °F 80% 29.75 in 10.0 mi West 18.4 mph - N/A   Scattered Clouds
10:36 AM 35.2 °F 25.0 °F 29.7 °F 80% 29.77 in 10.0 mi West 17.3 mph - N/A   Mostly Cloudy
10:56 AM 36.0 °F 26.3 °F 29.8 °F 78% 29.77 in 10.0 mi West 16.1 mph - N/A   Scattered Clouds
11:16 AM 35.6 °F 25.9 °F 29.8 °F 80% 29.76 in 10.0 mi West 16.1 mph 20.7 mph N/A   Clear
11:36 AM 35.1 °F 24.5 °F 29.8 °F 81% 29.76 in 10.0 mi West 18.4 mph 21.9 mph N/A   Clear
11:56 AM 36.5 °F 25.7 °F 30.4 °F 78% 29.77 in 10.0 mi West 20.7 mph - N/A   Clear
12:16 PM 37.0 °F 26.4 °F 30.9 °F 79% 29.76 in 10.0 mi West 20.7 mph 25.3 mph N/A   Scattered Clouds
12:36 PM 37.2 °F 27.0 °F 31.1 °F 79% 29.76 in 10.0 mi West 19.6 mph 26.5 mph N/A   Scattered Clouds
12:56 PM 37.0 °F 28.1 °F 31.1 °F 79% 29.77 in 10.0 mi West 15.0 mph 21.9 mph N/A   Mostly Cloudy
1:16 PM 36.9 °F 27.1 °F 30.9 °F 79% 29.76 in 10.0 mi West 17.3 mph 25.3 mph N/A   Overcast
1:35 PM 36.5 °F 25.2 °F 30.9 °F 80% 29.76 in 10.0 mi West 23.0 mph 29.9 mph N/A   Overcast
1:56 PM 36.3 °F 22.9 °F 30.9 °F 81% 29.78 in 10.0 mi WNW 33.4 mph 42.6 mph N/A   Overcast
2:16 PM 30.9 °F 15.7 °F 25.7 °F 81% 29.81 in 10.0 mi WNW 32.2 mph 36.8 mph N/A   Overcast
2:36 PM 28.6 °F 12.5 °F 21.0 °F 73% 29.83 in 10.0 mi WNW 32.2 mph 46.0 mph N/A   Mostly Cloudy
2:56 PM 27.0 °F 9.8 °F 19.0 °F 72% 29.86 in 10.0 mi WNW 34.5 mph 44.9 mph N/A   Scattered Clouds
3:16 PM 21.9 °F 2.2 °F 11.1 °F 63% 29.89 in 10.0 mi WNW 38.0 mph 50.6 mph N/A   Scattered Clouds
3:36 PM 19.2 °F -0.6 °F 9.7 °F 66% 29.92 in 10.0 mi WNW 33.4 mph 41.4 mph N/A   Clear
3:56 PM 18.5 °F -1.5 °F 8.6 °F 65% 29.93 in 10.0 mi WNW 33.4 mph 46.0 mph N/A   Scattered Clouds
4:16 PM 17.8 °F -3.3 °F 7.2 °F 63% 29.95 in 10.0 mi WNW 36.8 mph 48.3 mph N/A   Scattered Clouds
4:36 PM 17.2 °F -0.4 °F 7.3 °F 65% 29.97 in 10.0 mi West 23.0 mph 46.0 mph N/A   Scattered Clouds
4:56 PM 15.1 °F -5.7 °F 5.7 °F 66% 30.00 in 10.0 mi WNW 31.1 mph 40.3 mph N/A   Scattered Clouds
5:16 PM 13.1 °F -9.0 °F 2.8 °F 64% 30.02 in 10.0 mi WNW 33.4 mph 42.6 mph N/A   Scattered Clouds
5:36 PM 11.7 °F -10.3 °F 2.5 °F 67% 30.04 in 10.0 mi WNW 31.1 mph 40.3 mph N/A   Clear
5:56 PM 10.4 °F -12.0 °F 0.9 °F 65% 30.05 in 10.0 mi WNW 31.1 mph 42.6 mph N/A   Scattered Clouds
6:16 PM 9.5 °F -12.6 °F -0.0 °F 65% 30.07 in 10.0 mi WNW 28.8 mph 38.0 mph N/A   Clear
6:36 PM 8.8 °F -13.9 °F 0.3 °F 69% 30.09 in 10.0 mi WNW 29.9 mph 35.7 mph N/A   Scattered Clouds
6:56 PM 7.9 °F -15.1 °F -1.3 °F 66% 30.11 in 10.0 mi WNW 29.9 mph 35.7 mph N/A   Scattered Clouds
7:16 PM 7.2 °F -14.6 °F -1.8 °F 67% 30.12 in 10.0 mi WNW 25.3 mph 29.9 mph N/A   Clear
7:36 PM 6.3 °F -14.1 °F -2.2 °F 68% 30.13 in 10.0 mi WNW 20.7 mph 31.1 mph N/A   Clear
7:56 PM 5.9 °F -14.1 °F -2.0 °F 70% 30.15 in 10.0 mi WNW 19.6 mph 29.9 mph N/A   Clear
8:16 PM 5.0 °F -15.7 °F -3.3 °F 69% 30.16 in 10.0 mi WNW 20.7 mph 27.6 mph N/A   Clear
8:36 PM 4.1 °F -17.9 °F -5.1 °F 66% 30.17 in 10.0 mi WNW 23.0 mph 32.2 mph N/A   Clear
8:56 PM 3.9 °F -15.6 °F -4.4 °F 69% 30.19 in 10.0 mi WNW 17.3 mph 25.3 mph N/A   Clear
9:16 PM 3.6 °F -18.6 °F -4.4 °F 70% 30.21 in 10.0 mi WNW 23.0 mph 33.4 mph N/A   Scattered Clouds
9:36 PM 3.0 °F -17.8 °F -5.3 °F 68% 30.22 in 10.0 mi WNW 19.6 mph 29.9 mph N/A   Scattered Clouds
9:56 PM 3.0 °F -15.5 °F -4.9 °F 70% 30.23 in 10.0 mi WNW 15.0 mph 23.0 mph N/A   Scattered Clouds
10:16 PM 2.7 °F -17.8 °F -5.3 °F 70% 30.23 in 10.0 mi WNW 18.4 mph 21.9 mph N/A   Mostly Cloudy
10:36 PM 2.3 °F -15.0 °F -5.3 °F 71% 30.22 in 10.0 mi NW 12.7 mph 21.9 mph N/A   Scattered Clouds
10:56 PM 1.9 °F -16.2 °F -5.6 °F 71% 30.22 in 10.0 mi WNW 13.8 mph - N/A   Clear
11:16 PM 1.4 °F -16.9 °F -5.4 °F 73% 30.23 in 10.0 mi WNW 13.8 mph - N/A   Clear
11:36 PM 1.4 °F -19.4 °F -5.4 °F 73% 30.25 in 10.0 mi WNW 18.4 mph 25.3 mph N/A   Clear
11:54 PM 1.2 °F -19.1 °F -5.3 °F 74% 30.26 in 10.0 mi WNW 17.3 mph 21.9 mph N/A   Clear